Location: Igon
(43.1667°N, 0.2333°W)
Time: 07:33:02
(UTC+00:00)

RESURS O1 DEB - Visible Passes

Search period start: 16 June 2021 00:00
Search period end: 26 June 2021 00:00
Orbit: 620 x 627 km, 97.9° (Epoch: 15 June)

Date Brightness Start Highest point End Pass type
(mag) Time Alt. Az. Time Alt. Az. Time Alt. Az.
16 Jun ? 20:13:14 10° SSE 20:17:35 84° ENE 20:21:56 10° NNW visible
17 Jun ? 20:31:40 10° S 20:35:57 61° WSW 20:40:15 10° NNW visible
18 Jun ? 20:50:19 10° SSW 20:54:22 38° W 20:58:26 10° NNW visible
19 Jun ? 21:09:15 10° SSW 21:12:50 25° W 21:16:25 10° NW visible
20 Jun ? 21:28:38 10° SW 21:31:20 16° W 21:34:03 10° NW visible
21 Jun ? 21:49:37 10° W 21:49:53 10° W 21:50:08 10° W visible
22 Jun ? 20:27:13 10° S 20:31:31 69° WSW 20:35:52 10° NNW visible
23 Jun ? 20:45:47 10° S 20:49:54 43° W 20:54:03 10° NNW visible
24 Jun ? 21:04:37 10° SSW 21:08:19 27° W 21:12:03 10° NW visible
25 Jun ? 21:23:50 10° SW 21:26:47 18° W 21:29:47 10° NW visible
